Fort Worth Meacham International Airport
KFTW : now visible

Airfield :











YOU CAN JOIN US ON...

 
LOGIN :

Register | Disclaimer

   EN    FR    IT 

 









Legend :    VFR   Marginal VFR   IFR   Intensive IFR   Very Intensive IFR
Visi :
Ceiling :
>= 8 km
>= 3000ft
5 to 8 km
1000 to 3000 ft
1500m to 5 km
500 to 1000 ft
800 to 1500m
200 to 500 ft
< 800m
< 200 ft
Symbols :   Thunderstorms  Fog  Heavy snow  Heavy precipitations  Wind > 20 kt







- Airport Elevation : 710 ft
- IATA code : FTW


KFTW - Fort Worth Meacham International

CURRENT METAR :
  • 261045Z 15010KT 10SM SCT022 22/20 A3002 RMK AO2 T02220200

EXPIRED METARs :
  • 260953Z 15011KT 10SM OVC018 23/19 A3002 RMK AO2 SLP155 T02280194
  • 260940Z 15013KT 10SM BKN018 23/19 A3001 RMK AO2 T02280194
  • 260853Z 15010KT 10SM CLR 23/19 A3000 RMK AO2 SLP150 T02280194 53005
  • 260753Z 16014G19KT 10SM CLR 24/19 A2999 RMK AO2 SLP145 T02390189

TAF KFTW
Valid from the 26 at 09:00 until the 27 at 06:00 UTC


260908Z 2609/2706 16012KT P6SM SCT020 BKN220
FM261000 17013KT P6SM BKN018
FM261500 17017KT P6SM SCT040
KZFW FIR / North America



MET'MAP, your aeronautical weather chart ! - Copyright ORBIFLY December 2007 - Disclaimer

ORBIFLY MET'MAP TEAM :

Programming & Development : Alexandra Zaïnal
Concept & Development : Baudouin d'Aumeries
Co-Development & Prog : Marc-Olivier Méhu
Technical & hardware support : Manuel Goepfert

Contact : metmap@orbifly.com




SOURCES & CREDITS :

   NOAA       Earth
Advisory